Location: Unspecified
(0.0000°N, 0.0000°E)
Time: 11:16:22
(UTC+00:00)

ACS3 Solar Sail - Pass Details

Date: 18 June 2025
Orbit: 919 x 1019 km, 97.5° (Epoch: 21 June)

Event Time Altitude Azimuth Distance (km) Brightness Sun altitude
Rises 03:47:47 0° 47° (NE) 3,616 5.9 -30.3°
Reaches altitude 10° 03:51:20 10° 68° (ENE) 2,694 5.0 -29.5°
Maximum altitude 03:54:42 15° 103° (ESE) 2,341 4.3 -28.8°
Drops below altitude 10° 03:58:07 10° 137° (SE) 2,738 4.3 -28.0°
Sets 04:01:45 0° 158° (SSE) 3,709 4.8 -27.2°
